Location: Caltech
(34.1382°N, 118.1253°W)
Time: 02:30:10
(UTC-08:00)

SO-50 - Visible Passes

Search period start: 18 December 2014 00:00
Search period end: 28 December 2014 00:00
Orbit: 599 x 696 km, 64.6° (Epoch: 17 December)

Date Brightness Start Highest point End Pass type
(mag) Time Alt. Az. Time Alt. Az. Time Alt. Az.
18 Dec ? 06:04:39 10° NNW 06:09:12 37° NE 06:13:45 10° ESE visible
19 Dec ? 04:52:34 10° NNE 04:54:33 12° NE 04:56:31 10° ENE visible
20 Dec ? 05:17:15 10° N 05:21:26 27° NE 05:25:36 10° ESE visible
21 Dec ? 05:43:10 10° NNW 05:48:01 68° ENE 05:52:54 10° SE visible
22 Dec ? 04:31:40 16° NNE 04:33:36 20° NE 04:37:13 10° E visible
22 Dec ? 06:09:40 10° NW 06:14:21 45° WSW 06:19:00 10° S visible
23 Dec ? 04:58:00 27° N 05:00:17 47° ENE 05:05:00 10° SE visible
24 Dec ? 03:46:38 14° ENE 03:46:38 14° ENE 03:48:32 10° E visible
24 Dec ? 05:24:24 31° NW 05:26:42 66° WSW 05:31:32 10° SSE visible
24 Dec ? 19:32:50 10° SSW 19:33:40 15° SSW 19:33:40 15° SSW visible
25 Dec ? 04:13:08 33° ENE 04:13:08 33° ENE 04:16:56 10° ESE visible
25 Dec ? 05:50:54 19° WNW 05:52:51 25° WSW 05:56:47 10° SSW visible
25 Dec ? 18:19:56 10° SSE 18:22:33 22° SE 18:22:33 22° SE visible
25 Dec ? 19:59:50 10° WSW 20:00:20 13° WSW 20:00:20 13° WSW visible
26 Dec ? 04:39:41 66° SE 04:39:41 66° SE 04:43:54 10° SSE visible
26 Dec ? 18:45:10 10° SSW 18:49:10 63° SSE 18:49:10 63° SSE visible
27 Dec ? 03:28:32 11° ESE 03:28:32 11° ESE 03:28:40 10° ESE visible
27 Dec ? 05:06:18 31° SW 05:06:18 31° SW 05:09:40 10° S visible
27 Dec ? 17:33:10 10° SE 17:35:54 16° ESE 17:37:58 12° ENE visible
27 Dec ? 19:11:43 10° SW 19:15:44 42° WNW 19:15:44 42° WNW visible
